McAllen, TX

12:55 PM CST on February 24, 2018 (GMT -0600)
McAllen Miller International

Weather History for KMFE - January, 2012

Change the Weather History Date:

Sunday, January 15, 2012

  Actual Average Record
Temperature  
Mean Temperature 68 °F 61 °F  
Max Temperature 74 °F 71 °F 86 °F (2017)
Min Temperature 61 °F 50 °F 32 °F (1979)
Degree Days  
Heating Degree Days 0 6  
Month to date heating degree days 73 101  
Since 1 July heating degree days 272 338  
Cooling Degree Days 3 2  
Month to date cooling degree days 15 30  
Year to date cooling degree days 15 30  
Growing Degree Days 16 (Base 50)    
Moisture  
Dew Point 58 °F    
Average Humidity 77    
Maximum Humidity 90    
Minimum Humidity 64    
Precipitation  
Precipitation T in 0.04 in 1.00 in (2008)
Month to date precipitation 0.21 0.50  
Year to date precipitation 0.21 0.50  
Sea Level Pressure  
Sea Level Pressure 30.24 in    
Wind  
Wind Speed 10 mph (SE)    
Max Wind Speed 24 mph    
Max Gust Speed 30 mph    
Visibility 10 miles    
Events      
T = Trace of Precipitation, MM = Missing Value Source: NWS Daily Summary

Daily Weather History Graph

Daily Weather History Graph

Search for Another Location

Airport or City:

Trip Planner

Search our weather history database for the weather conditions in past years. The results will help you decide how hot, cold, wet, or windy it might be!

Date:

Astronomy

Jan. 15, 2012 Rise Set
Actual Time 7:22 AM CST 6:02 PM CST
Civil Twilight 6:57 AM CST 6:27 PM CST
Nautical Twilight 6:28 AM CST 6:55 PM CST
Astronomical Twilight 6:00 AM CST 7:23 PM CST
Moon No Moon Rise 11:27 AM CST (1/15)
Length of Visible Light 11h 30m
Length of Day
10h 40m
Waning Gibbous, 57% of the Moon is Illuminated
Jan 15
Waning Gibbous
Jan 16
Last Quarter
Jan 23
New
Jan 30
First Quarter
Feb 7
Full

Hourly Weather History & Observations

Time (CST) Temp. Dew Point Humidity Pressure Visibility Wind Dir Wind Speed Gust Speed Precip Events Conditions
12:53 AM 61.0 °F 48.0 °F 62% 30.33 in 10.0 mi East 3.5 mph - N/A   Overcast
1:51 AM 60.8 °F 50.0 °F 68% 30.32 in 10.0 mi ESE 4.6 mph - N/A   Overcast
1:53 AM 61.0 °F 50.0 °F 67% 30.32 in 10.0 mi SE 3.5 mph - N/A   Overcast
2:53 AM 62.1 °F 51.1 °F 67% 30.30 in 10.0 mi Calm Calm - N/A   Overcast
3:12 AM 60.8 °F 51.8 °F 72% 30.30 in 10.0 mi Calm Calm - N/A   Overcast
3:53 AM 62.6 °F 51.8 °F 68% 30.29 in 10.0 mi ENE 3.5 mph - N/A   Overcast
4:02 AM 62.6 °F 51.8 °F 68% 30.29 in 10.0 mi Calm Calm - N/A   Overcast
4:31 AM 62.6 °F 51.8 °F 68% 30.29 in 10.0 mi Calm Calm - N/A   Overcast
4:53 AM 62.1 °F 52.0 °F 70% 30.29 in 10.0 mi Calm Calm - N/A   Overcast
5:29 AM 62.6 °F 53.6 °F 72% 30.29 in 10.0 mi East 3.5 mph - N/A   Overcast
5:53 AM 62.1 °F 53.1 °F 72% 30.29 in 10.0 mi East 3.5 mph - N/A   Overcast
6:53 AM 62.1 °F 54.0 °F 75% 30.29 in 10.0 mi ESE 5.8 mph - N/A   Overcast
7:53 AM 62.1 °F 57.9 °F 86% 30.30 in 10.0 mi East 8.1 mph - N/A   Overcast
8:53 AM 63.0 °F 59.0 °F 87% 30.32 in 10.0 mi ESE 8.1 mph - N/A   Overcast
9:53 AM 64.9 °F 60.1 °F 84% 30.34 in 10.0 mi ESE 8.1 mph - 0.00 in   Overcast
10:53 AM 68.0 °F 61.0 °F 78% 30.32 in 10.0 mi SE 11.5 mph - N/A   Overcast
11:23 AM 69.8 °F 60.8 °F 73% 30.31 in 10.0 mi SE 13.8 mph - N/A   Overcast
11:36 AM 69.8 °F 60.8 °F 73% 30.29 in 10.0 mi SE 13.8 mph 20.7 mph N/A   Overcast
11:53 AM 70.0 °F 61.0 °F 73% 30.28 in 10.0 mi SE 15.0 mph - N/A   Overcast
12:53 PM 73.0 °F 62.1 °F 68% 30.23 in 10.0 mi SE 16.1 mph 23.0 mph N/A   Overcast
1:53 PM 73.0 °F 61.0 °F 66% 30.20 in 10.0 mi SE 23.0 mph - N/A   Overcast
2:03 PM 73.4 °F 60.8 °F 65% 30.20 in 10.0 mi SSE 19.6 mph 29.9 mph N/A   Overcast
2:12 PM 73.4 °F 60.8 °F 65% 30.20 in 10.0 mi SSE 24.2 mph 27.6 mph N/A   Overcast
2:24 PM 73.4 °F 60.8 °F 65% 30.20 in 10.0 mi SE 21.9 mph 25.3 mph N/A   Overcast
2:48 PM 73.4 °F 60.8 °F 65% 30.19 in 10.0 mi SSE 16.1 mph 24.2 mph N/A   Overcast
2:53 PM 73.9 °F 61.0 °F 64% 30.18 in 10.0 mi SSE 16.1 mph - N/A   Overcast
3:01 PM 73.4 °F 60.8 °F 65% 30.18 in 10.0 mi SSE 17.3 mph 24.2 mph N/A   Overcast
3:53 PM 73.9 °F 61.0 °F 64% 30.17 in 10.0 mi SSE 21.9 mph 27.6 mph N/A   Overcast
4:53 PM 73.0 °F 60.1 °F 64% 30.17 in 10.0 mi SE 19.6 mph 25.3 mph N/A   Overcast
5:53 PM 72.0 °F 59.0 °F 64% 30.17 in 10.0 mi SE 16.1 mph 24.2 mph N/A   Overcast
6:53 PM 70.0 °F 59.0 °F 68% 30.17 in 10.0 mi SE 15.0 mph - N/A   Scattered Clouds
7:53 PM 66.9 °F 60.1 °F 79% 30.18 in 10.0 mi SE 10.4 mph - N/A   Clear
8:27 PM 66.2 °F 60.8 °F 83% 30.20 in 10.0 mi SE 6.9 mph - N/A   Mostly Cloudy
8:41 PM 64.4 °F 59.0 °F 83% 30.20 in 10.0 mi SE 8.1 mph - N/A   Scattered Clouds
8:53 PM 66.0 °F 60.1 °F 81% 30.19 in 10.0 mi SE 8.1 mph - N/A   Partly Cloudy
9:53 PM 64.9 °F 60.1 °F 84% 30.20 in 10.0 mi SE 5.8 mph - N/A   Mostly Cloudy
10:13 PM 64.4 °F 60.8 °F 88% 30.20 in 10.0 mi SE 5.8 mph - N/A   Scattered Clouds
10:35 PM 64.4 °F 60.8 °F 88% 30.21 in 10.0 mi SE 4.6 mph - N/A   Mostly Cloudy
10:53 PM 64.9 °F 61.0 °F 87% 30.20 in 10.0 mi Calm Calm - N/A   Overcast
11:53 PM 66.0 °F 61.0 °F 84% 30.18 in 10.0 mi ESE 6.9 mph - N/A   Overcast